Tracking 23610 objects as of 20-Sep-2021
HD Live streaming from Space Station
objects crossing your sky now

STARLINK-2568

Track STARLINK-2568 now!
10-day predictions
STARLINK-2568 is classified as:


NORAD ID: 48406
Int'l Code: 2021-038BF
Perigee: 552.7 km
Apogee: 556.1 km
Inclination: 53.1 °
Period: 95.6 minutes
Semi major axis: 6925 km
RCS: Unknown
Launch date: May 4, 2021
Source: United States (US)
Launch site: AIR FORCE EASTERN TEST RANGE (AFETR)
aabbcc
Your satellite tracking list
Your tracking list is empty




NASA's NSSDC Master Catalog

Two Line Element Set (TLE):
1 48406U 21038BF  21262.91667824  .00010659  00000-0  73366-3 0  9991
2 48406  53.0540 106.9205 0002450  90.7969 232.3334 15.06385912  3581
Source of the keplerian elements: AFSPC